Location: Ostrava
(49.8330°N, 18.2830°E)
Time: 11:31:08
(UTC+01:00)

Explorer 7 - Visible Passes

Search period start: 23 January 2017 00:00
Search period end: 02 February 2017 00:00
Orbit: 486 x 685 km, 50.3° (Epoch: 23 January)

Date Brightness Start Highest point End Pass type
(mag) Time Alt. Az. Time Alt. Az. Time Alt. Az.
23 Jan 9.7 04:15:34 13° SSE 04:17:02 14° SE 04:19:34 10° ESE visible
23 Jan 8.1 05:52:19 10° SW 05:56:58 47° SSE 06:01:25 10° E visible
24 Jan 9.2 04:22:02 20° SSE 04:22:47 21° SE 04:26:21 10° E visible
24 Jan 7.6 05:58:28 12° SW 06:02:56 61° SSE 06:07:30 10° ENE visible
25 Jan 8.7 04:28:18 29° SSE 04:28:36 29° SE 04:32:44 10° E visible
25 Jan 7.3 06:04:43 14° WSW 06:08:56 75° SSE 06:13:34 10° ENE visible
26 Jan 8.1 04:34:25 40° SSE 04:34:28 40° SSE 04:38:56 10° E visible
26 Jan 7.2 06:10:49 14° WSW 06:14:58 87° S 06:19:37 10° E visible
27 Jan 7.7 04:40:25 53° SSE 04:40:25 53° SSE 04:45:02 10° ENE visible
27 Jan 7.1 06:16:49 14° W 06:21:03 86° N 06:25:40 10° E visible
28 Jan 10.3 03:09:56 11° E 03:09:56 11° E 03:10:05 10° E visible
28 Jan 7.3 04:46:19 68° SSE 04:46:23 68° SSE 04:51:06 10° ENE visible
28 Jan 7.2 06:22:43 13° W 06:27:07 84° N 06:31:45 10° E visible
29 Jan 10.1 03:15:46 13° E 03:15:46 13° E 03:16:21 10° E visible
29 Jan 7.1 04:52:10 78° SSW 04:52:23 81° SSE 04:57:09 10° E visible
29 Jan 7.2 06:28:33 11° W 06:33:12 86° N 06:37:48 10° E visible
30 Jan 10.0 03:21:34 15° E 03:21:34 15° E 03:22:30 10° E visible
30 Jan 7.0 04:57:57 73° W 04:58:26 89° NNW 05:03:12 10° E visible
30 Jan 7.2 06:34:24 10° W 06:39:15 87° S 06:43:51 10° ESE visible
31 Jan 9.8 03:27:20 18° E 03:27:20 18° E 03:28:35 10° ENE visible
31 Jan 7.1 05:03:43 62° W 05:04:31 84° N 05:09:15 10° E visible
31 Jan 7.3 06:40:27 10° WNW 06:45:17 75° SSW 06:49:52 10° ESE visible
01 Feb 9.6 03:33:04 21° E 03:33:04 21° E 03:34:38 10° ENE visible
01 Feb 7.1 05:09:27 53° W 05:10:35 84° N 05:15:19 10° E visible
01 Feb 7.5 06:46:30 10° WNW 06:51:16 61° SSW 06:55:47 10° ESE visible
